Погода в Жиззе

Узбекистан     38°56′54″N   65°25′44″E
темп.,
°C
ветер,
м/с
пор.,
м/с
влажн.,
%
обл.,
%
осадки,
мм/ч
давл.,
гПа
погр.,
м
1 марта, пн
пн123:00+8в333326 0.0 101925
02:00+7юв34350 0.0 101828
05:00+6вюв34380 0.0 101824
08:00+7юв34300 0.0 101829
11:00+15ююз46180 0.0 1018426
14:00+20ююз910140 0.0 10171806
17:00+19ююз79150 0.0 10171823
20:00+14юз23264 0.0 101923
2 марта, вт
вт223:00+12с332752 0.0 102026
02:00+11св3428100 0.0 102036
05:00+10ссв3431100 0.0 102026
08:00+11ссв2330100 0.0 102126
11:00+16с2222100 0.0 1021357
14:00+17сз4321100 0.0 1020732
17:00+17з2322100 0.0 10191743
20:00+13с233661 0.0 102230
3 марта, ср
ср323:00+10с354039 0.0 102299
02:00+9с334131 0.0 102232
05:00+8ссз334147 0.0 102230
08:00+9с334067 0.0 102274
11:00+14сз332853 0.0 1022448
14:00+16сз332412 0.0 10201584
17:00+16ссз322421 0.0 10181350
20:00+12ссв34380 0.0 101891
4 марта, чт
чт423:00+10св33430 0.0 101844
02:00+10всв33430 0.0 101731
05:00+9всв34559 0.0 101633
08:00+11в335586 0.1 101763
11:00+17юв223781 0.1 1017448
14:00+21зюз572847 0.0 10172274
17:00+20з453060 0.0 10171944
20:00+15сз4104338 0.4 1020364
5 марта, пт
пт523:00+11ссз6114635 0.4 1023479
02:00+8сз8107450 0.1 1025665
05:00+7ссв348475 3.2 1027425
08:00+7всв457999 1.3 1028430
11:00+10св455859 1.3 1026772
14:00+14ссв33440 0.0 1022966
17:00+14ссв774947 0.0 1019735
20:00+10св71062100 0.0 1017312